Regional Weather Roundup
Issued by NWS Newport/Morehead, NC

Current Version | Previous Version | Text Only | Print | Product List | Glossary Off
Versions: 1 2 3 4 5 6 7 8 9 10 11 12 13 14 15 16 17 18 19 20 21 22 23 24 25 26 27 28 29 30 31 32 33 34 35 36 37 38 39 40 41 42 43 44 45 46 47 48 49 50
000 ASUS42 KMHX 022025 RWRMHX WEATHER ROUNDUP FOR EASTERN NORTH CAROLINA NATIONAL WEATHER SERVICE NEWPORT/MOREHEAD CITY NC 400 PM EDT SUN AUG 02 2015 NOTE: "FAIR" INDICATES FEW OR NO CLOUDS BELOW 12,000 FEET WITH NO SIGNIFICANT WEATHER AND/OR OBSTRUCTIONS TO VISIBILITY NCZ015>017-031-032-045>047-102-103-022100- NORTH COAST CITY SKY/WX TMP DP RH WIND PRES REMARKS EDENTON N/A 93 62 35 SW8 29.90F ELIZABETH CITY MOSUNNY 92 65 40 VRB3 29.90F KITTY HAWK PTCLDY 91 73 55 SE9 29.91F MANTEO CLOUDY 86 72 63 S13 29.92F $$ NCZ045>047-081-094-103-104-022100- CENTRAL COAST CITY SKY/WX TMP DP RH WIND PRES REMARKS FRISCO MOSUNNY 86 76 71 SW8 29.94F SWANQUARTER N/A 90 N/A N/A S10G21 29.88S $$ NCZ095-097-098-100-101-022100- SOUTHERN COAST CITY SKY/WX TMP DP RH WIND PRES REMARKS BEAUFORT MOSUNNY 85 78 80 S17 29.94F CEDAR ISLAND N/A 86 N/A N/A S15 29.97S JACKSONVILLE CLOUDY 81 74 79 SW8 29.94S PINEY ISLAND NOT AVBL WILMINGTON PTSUNNY 85 73 67 SE10G18 29.94S $$ NCZ011>013-027>030-043-044-078>080-089-090>093-098-022100- COASTAL PLAIN CITY SKY/WX TMP DP RH WIND PRES REMARKS AHOSKIE SUNNY 88 63 44 N8 29.92F CLINTON SUNNY 94 61 32 CALM 29.92F ELIZABETHTOWN SUNNY 94 57 28 CALM 29.92S GOLDSBORO SUNNY 94 59 30 N2 29.90F GREENVILLE SUNNY 95 61 31 SW6 29.93F HAVELOCK NOT AVBL KENANSVILLE SUNNY 93 53 25 NW3 29.93S KINSTON SUNNY 93 54 26 NW6 29.92F NEW BERN PTSUNNY 88 72 58 S14G21 29.94R RICHLANDS PTSUNNY 84 66 54 S10G16 29.94R ROCKY MOUNT SUNNY 94 56 27 VRB6 29.92F WASHINGTON SUNNY 93 62 35 NW7 29.91F WHITEVILLE MOSUNNY 79 70 72 S14G21 29.95R $$ AMZ130-135-150-152-154-156-158-170-250-252-270-ANZ085-086-088-633-658-670-022100- MARINE OBSERVATIONS STATION/POSITION TIME TEMP WIND PRES WAVE SWELL AIR SEA DIR/SP/G HT/PER HT/PER (UTC) (F) (DEG/KT/KT) (MB) (FT/S) (FT/S) CHESAPEAKE LIGHT 2000 78 180/ 14/ 15 1013.8 64 E VA BEACH 1950 82 83 170/ 14/ 16 1013.0 3/11 2/11 DUCK 2000 82 81 140/ 15/ 18 1012.0 2 E DUCK 1911 81 N/A 2/11 2/11 OREGON INLET 2000 86 80 170/ 11/ 15 1013.3 13E OREGON INLT 2000 82 N/A 3/ 7 2/11 HATTERAS CG 2000 86 82 190/ 6/ 11 1013.5 DIAMOND BUOY 1950 83 86 190/ 17/ 19 1013.9 3/12 2/12 CAPE LOOKOUT 2000 83 170/ 15/ 17 1013.6 BEAUFORT LAB 2000 84 84 200/ 15/ 17 1013.2 30 SE NEW RVR IN NOT AVBL 27 SE WRIGHTSVLE 2000 79 83 210/ 16/ 17 N/A 5 SE WRIGHTSVLE 1908 83 84 180/ 14/ 17 1014.1 225 S CAPE HAT 1950 80 81 240/ 6/ 12 1016.7 6/ 8 7/ 8 41 SE CHARLESTON 1950 79 83 190/ 2/ 4 1013.6 3/ 6 3/ 6 $$

USA.gov is the U.S. government's official web portal to all federal, state and local government web resources and services.